Lancaster, OH

10:08 AM EDT on April 21, 2018 (GMT -0400)
Fairfield County

Weather History for KLHQ - January, 2012

Change the Weather History Date:

Sunday, January 1, 2012

  Actual Average Record
Temperature  
Mean Temperature 42 °F -  
Max Temperature 54 °F 38 °F 61 °F (1966)
Min Temperature 30 °F 20 °F -11 °F (1968)
Degree Days  
Heating Degree Days 23    
Moisture  
Dew Point 33 °F    
Average Humidity 74    
Maximum Humidity 97    
Minimum Humidity 50    
Precipitation  
Precipitation 0.01 in - - ()
Sea Level Pressure  
Sea Level Pressure 29.90 in    
Wind  
Wind Speed 13 mph (SW)    
Max Wind Speed 30 mph    
Max Gust Speed 45 mph    
Visibility 8 miles    
Events Rain , Snow    
Averages and records for this station are not official NWS values.
T = Trace of Precipitation, MM = Missing Value Source: NWS Daily Summary

Daily Weather History Graph

Daily Weather History Graph

Search for Another Location

Airport or City:

Astronomy

Jan. 01, 2012 Rise Set
Actual Time 7:51 AM EST 5:16 PM EST
Civil Twilight 7:21 AM EST 5:46 PM EST
Nautical Twilight 6:47 AM EST 6:20 PM EST
Astronomical Twilight 6:14 AM EST 6:53 PM EST
Moon 12:04 PM EST (1/1) 12:46 AM EST (1/1)
Length of Visible Light 10h 25m
Length of Day
9h 24m
First Quarter, 54% of the Moon is Illuminated
Jan 1
First Quarter
Jan 9
Full
Jan 16
Last Quarter
Jan 23
New
Jan 30
First Quarter

Hourly Weather History & Observations

Time (EST) Temp. Windchill Dew Point Humidity Pressure Visibility Wind Dir Wind Speed Gust Speed Precip Events Conditions
12:53 AM 37.0 °F 31.6 °F 35.1 °F 93% 30.03 in 6.0 mi SSE 6.9 mph - N/A   Clear
1:53 AM 36.0 °F 30.3 °F 35.1 °F 97% 29.99 in 6.0 mi SE 6.9 mph - N/A   Clear
2:53 AM 37.0 °F 30.4 °F 35.1 °F 93% 29.96 in 10.0 mi SSE 9.2 mph - N/A   Clear
3:53 AM 37.9 °F 30.9 °F 35.1 °F 89% 29.93 in 10.0 mi SSE 10.4 mph - N/A   Clear
4:53 AM 37.9 °F 30.9 °F 35.1 °F 89% 29.88 in 10.0 mi SE 10.4 mph - N/A   Scattered Clouds
5:53 AM 41.0 °F 35.2 °F 36.0 °F 82% 29.83 in 10.0 mi SE 9.2 mph - N/A   Overcast
6:53 AM 46.0 °F 41.9 °F 35.1 °F 66% 29.81 in 10.0 mi South 8.1 mph 21.9 mph N/A   Overcast
7:53 AM 46.9 °F - 37.0 °F 68% 29.79 in 10.0 mi SSW 13.8 mph - N/A   Overcast
8:53 AM 48.9 °F - 37.9 °F 66% 29.77 in 10.0 mi South 13.8 mph - N/A   Overcast
9:53 AM 50.0 °F - 39.9 °F 68% 29.75 in 10.0 mi South 12.7 mph - N/A   Overcast
10:53 AM 52.0 °F - 42.1 °F 69% 29.73 in 10.0 mi South 11.5 mph - N/A   Overcast
11:53 AM 54.0 °F - 46.0 °F 75% 29.71 in 10.0 mi SW 13.8 mph 23.0 mph 0.00 in   Mostly Cloudy
12:13 PM 53.6 °F - 44.6 °F 72% 29.73 in 2.0 mi West 29.9 mph 42.6 mph 0.04 in Rain Rain
12:20 PM 50.0 °F - 44.6 °F 82% 29.73 in 1.8 mi West 21.9 mph 44.9 mph 0.05 in Rain Light Rain
12:22 PM 50.0 °F - 44.6 °F 82% 29.73 in 3.0 mi West 19.6 mph 44.9 mph 0.05 in Rain Light Rain
1:16 PM 46.4 °F 38.5 °F 37.4 °F 71% 29.76 in 10.0 mi West 21.9 mph 33.4 mph N/A   Overcast
2:53 PM 42.1 °F 33.1 °F 35.1 °F 76% 29.86 in 8.0 mi West 20.7 mph 43.7 mph N/A   Overcast
3:09 PM 42.8 °F 34.5 °F 33.8 °F 70% 29.86 in 10.0 mi West 18.4 mph 39.1 mph N/A   Overcast
3:40 PM 41.0 °F 32.5 °F 33.8 °F 76% 29.89 in 10.0 mi West 17.3 mph 35.7 mph N/A   Overcast
4:53 PM 39.9 °F 31.1 °F 34.0 °F 79% 29.96 in 10.0 mi West 17.3 mph 25.3 mph N/A   Overcast
5:53 PM 39.0 °F 30.6 °F 30.9 °F 73% 29.98 in 10.0 mi West 15.0 mph 27.6 mph N/A   Scattered Clouds
6:53 PM 39.0 °F 29.9 °F 28.9 °F 67% 30.00 in 10.0 mi West 17.3 mph 25.3 mph N/A   Overcast
7:53 PM 36.0 °F 25.6 °F 19.0 °F 50% 30.05 in 10.0 mi West 18.4 mph 28.8 mph 0.01 in   Overcast
8:53 PM 34.0 °F 22.7 °F 18.0 °F 52% 30.07 in 10.0 mi WNW 19.6 mph 32.2 mph N/A   Overcast
9:53 PM 30.9 °F 18.7 °F 21.9 °F 69% 30.08 in 2.0 mi West 19.6 mph 41.4 mph 0.00 in Snow Light Snow
9:58 PM 30.2 °F 17.1 °F 21.2 °F 69% 30.06 in 2.5 mi West 21.9 mph 36.8 mph 0.00 in Snow Light Snow
10:06 PM 30.2 °F 18.1 °F 21.2 °F 69% 30.07 in 9.0 mi West 18.4 mph 32.2 mph 0.00 in   Mostly Cloudy
10:53 PM 30.9 °F 19.4 °F 21.0 °F 67% 30.07 in 10.0 mi West 17.3 mph 25.3 mph 0.00 in   Overcast
11:53 PM 30.9 °F 19.8 °F 19.9 °F 64% 30.06 in 10.0 mi West 16.1 mph 27.6 mph N/A   Overcast